TimePST,TemperatureF,Dew PointF,Humidity,Sea Level PressureIn,VisibilityMPH,Wind Direction,Wind SpeedMPH,Gust SpeedMPH,PrecipitationIn,Events,Conditions,WindDirDegrees,DateUTC
12:56 AM,30.9,21.9,69,29.98,10.0,NW,5.8,-,N/A,,Clear,310,2013-11-19 08:56:00
1:56 AM,34.0,26.1,73,29.96,10.0,NW,6.9,-,N/A,,Clear,310,2013-11-19 09:56:00
2:56 AM,32.0,25.0,75,29.96,10.0,NW,6.9,-,N/A,,Clear,320,2013-11-19 10:56:00
3:56 AM,30.0,24.1,79,29.96,10.0,West,4.6,-,N/A,,Clear,270,2013-11-19 11:56:00
4:56 AM,28.9,24.1,82,29.96,10.0,North,4.6,-,N/A,,Clear,350,2013-11-19 12:56:00
5:56 AM,28.9,24.1,82,29.98,10.0,NNW,5.8,-,N/A,,Mostly Cloudy,330,2013-11-19 13:56:00
6:56 AM,34.0,27.0,75,29.98,10.0,Calm,Calm,-,N/A,,Mostly Cloudy,0,2013-11-19 14:56:00
7:56 AM,39.0,28.9,67,30.00,10.0,Calm,Calm,-,N/A,,Mostly Cloudy,0,2013-11-19 15:56:00
8:56 AM,44.1,30.0,58,29.99,10.0,SE,3.5,-,N/A,,Clear,130,2013-11-19 16:56:00
9:56 AM,51.1,30.9,46,29.97,10.0,Calm,Calm,-,N/A,,Clear,0,2013-11-19 17:56:00
10:56 AM,55.0,32.0,42,29.94,10.0,Calm,Calm,-,N/A,,Clear,0,2013-11-19 18:56:00
11:56 AM,60.1,28.9,31,29.89,10.0,Calm,Calm,-,N/A,,Clear,0,2013-11-19 19:56:00
12:56 PM,62.1,28.9,29,29.87,10.0,South,4.6,-,N/A,,Clear,170,2013-11-19 20:56:00
1:56 PM,63.0,27.0,26,29.84,10.0,South,4.6,-,N/A,,Partly Cloudy,170,2013-11-19 21:56:00
2:56 PM,64.9,27.0,24,29.83,10.0,South,9.2,-,N/A,,Clear,180,2013-11-19 22:56:00
3:56 PM,63.0,28.0,27,29.83,10.0,South,10.4,-,N/A,,Clear,170,2013-11-19 23:56:00
4:56 PM,59.0,30.0,33,29.85,10.0,South,13.8,-,N/A,,Clear,170,2013-11-20 00:56:00
5:56 PM,55.9,30.0,37,29.86,10.0,SSE,13.8,-,N/A,,Clear,160,2013-11-20 01:56:00
6:56 PM,53.1,28.9,40,29.87,10.0,South,9.2,-,N/A,,Overcast,170,2013-11-20 02:56:00
7:56 PM,54.0,30.9,41,29.84,10.0,SSE,13.8,23.0,N/A,,Scattered Clouds,160,2013-11-20 03:56:00
8:56 PM,51.1,30.9,46,29.86,10.0,South,6.9,-,N/A,,Mostly Cloudy,190,2013-11-20 04:56:00
9:56 PM,51.1,32.0,48,29.86,10.0,South,4.6,-,N/A,,Mostly Cloudy,190,2013-11-20 05:56:00
10:56 PM,48.9,32.0,52,29.85,10.0,SSW,3.5,-,N/A,,Overcast,210,2013-11-20 06:56:00
11:56 PM,48.9,32.0,52,29.83,10.0,ESE,5.8,-,N/A,,Overcast,110,2013-11-20 07:56:00